Location: Eastchurch
(51.4000°N, 0.8667°E)
Time: 23:05:26
(UTC+00:00)

CZ-2D R/B - Pass Details

Date: 19 January 2026
Orbit: 390 x 400 km, 97.4° (Epoch: 7 February)

Event Time Altitude Azimuth Distance (km) Brightness Sun altitude
Rises 17:00:31 0° 146° (SSE) 2,331 6.4 -5.9°
Reaches altitude 10° 17:02:35 10° 138° (SE) 1,474 5.3 -6.1°
Maximum altitude 17:05:30 36° 70° (ENE) 672 3.3 -6.6°
Drops below altitude 10° 17:08:26 10° 2° (N) 1,479 5.3 -7.0°
Sets 17:10:30 0° 354° (N) 2,342 6.4 -7.3°
